Location: Zapote
(9.9191°N, 84.0597°W)
Time: 05:11:55
(UTC-06:00)

Envisat - Pass Details

Date: 28 January 2021
Orbit: 764 x 766 km, 98.1° (Epoch: 09 March)

Event Time Altitude Azimuth Distance (km) Brightness Sun altitude
Rises 05:12:29 0° 7° (N) 3,218 6.1 -11.7°
Reaches altitude 10° 05:14:47 10° 4° (N) 2,293 5.3 -11.2°
Maximum altitude 05:19:47 67° 283° (WNW) 827 2.9 -10.0°
Drops below altitude 10° 05:24:48 10° 201° (SSW) 2,293 5.4 -8.8°
Sets 05:27:07 0° 198° (SSW) 3,219 6.2 -8.3°
